Waarnemingen

Advertentie
Mijn weer
Ibiza/Es Codola, Spanje (8373): temperatuur & dauwpunt: 13.11.2017 20:00:00 - 19.11.2017 20:00:00 (CET)Ibiza/Es Codola, Spanje (8373): windsnelheid: 13.11.2017 20:00:00 - 19.11.2017 20:00:00 (CET)Ibiza/Es Codola, Spanje (8373): windrichting: 13.11.2017 20:00:00 - 19.11.2017 20:00:00 (CET)Ibiza/Es Codola, Spanje (8373): luchtdruk: 13.11.2017 20:00:00 - 19.11.2017 20:00:00 (CET)Ibiza/Es Codola, Spanje (8373): zicht: 13.11.2017 20:00:00 - 19.11.2017 20:00:00 (CET)
Datum & Tijd tt [°C] td [°C] ff [km/u] ff [kn] dd ppp [hPa] vv [km]
19.11.2017 20:00:00 12,2 10,9 0 0 N 1022,4 10
19.11.2017 19:00:00 13,0 11,1 8 4 NW 1021,8 10
19.11.2017 18:00:00 14,7 11,5 9 5 ZW 1021,3 10
19.11.2017 17:00:00 17,5 12,6 11 6 ZW 1020,9 10
19.11.2017 16:00:00 18,4 13,3 11 6 ZW 1020,6 10
19.11.2017 15:00:00 19,0 13,2 13 7 ZZW 1020,8 10
19.11.2017 14:00:00 19,0 12,8 13 7 ZZW 1021,1 10
19.11.2017 13:00:00 19,0 12,6 11 6 ZW 1021,8 10
19.11.2017 12:00:00 18,7 12,5 9 5 ZZW 1022,1 10
19.11.2017 11:00:00 18,5 13,1 5 3 ZZW 1022,3 10
19.11.2017 10:00:00 16,5 14,0 0 0 N 1022,4 10
19.11.2017 09:00:00 12,4 12,1 0 0 N 1022,0 10
19.11.2017 08:00:00 9,3 9,0 0 0 N 1021,6 10
19.11.2017 07:00:00 9,7 9,3 2 1 - 1021,1 10
19.11.2017 06:00:00 9,9 9,6 0 0 N 1020,8 -
19.11.2017 05:00:00 9,3 9,0 0 0 N 1020,9 -
19.11.2017 04:00:00 9,1 8,4 0 0 N 1020,9 -
19.11.2017 03:00:00 10,3 9,8 0 0 N 1021,0 -
19.11.2017 02:00:00 9,6 9,1 0 0 N 1021,0 -
19.11.2017 01:00:00 10,0 9,2 0 0 N 1021,3 -
19.11.2017 00:00:00 10,3 9,5 0 0 N 1021,6 10
18.11.2017 23:00:00 10,3 9,4 0 0 N 1021,6 10
18.11.2017 22:00:00 10,8 9,4 4 2 - 1021,6 10
18.11.2017 21:00:00 11,3 9,9 0 0 N 1021,2 10
18.11.2017 20:00:00 12,3 10,4 8 4 NNW 1021,1 10
18.11.2017 19:00:00 12,3 10,3 2 1 NW 1020,6 10
18.11.2017 18:00:00 15,3 11,7 4 2 ZW 1020,3 10
18.11.2017 17:00:00 17,7 11,9 5 3 ZZW 1019,9 10
18.11.2017 16:00:00 19,2 12,4 11 6 ZZW 1019,6 10
18.11.2017 15:00:00 19,2 12,6 15 8 ZZW 1019,5 10
18.11.2017 14:00:00 19,2 12,2 11 6 ZZW 1019,7 10
18.11.2017 13:00:00 19,1 12,6 11 6 ZZW 1020,1 10
18.11.2017 12:00:00 17,6 13,1 5 3 ZW 1020,6 10
18.11.2017 11:00:00 16,6 14,1 0 0 N 1020,9 10
18.11.2017 10:00:00 16,5 13,7 0 0 N 1020,6 10
18.11.2017 09:00:00 11,8 11,5 0 0 N 1020,3 10
18.11.2017 08:00:00 8,8 8,5 0 0 N 1019,8 10
18.11.2017 07:00:00 7,6 7,3 0 0 N 1019,7 10
18.11.2017 06:00:00 8,3 8,0 0 0 N 1019,3 -
18.11.2017 05:00:00 8,2 7,8 0 0 N 1019,3 -
18.11.2017 04:00:00 8,3 7,9 5 3 N 1019,5 -
18.11.2017 03:00:00 8,2 7,4 0 0 N 1019,8 -
18.11.2017 02:00:00 9,2 8,4 0 0 N 1020,1 -
18.11.2017 01:00:00 8,8 8,0 0 0 N 1020,3 15
18.11.2017 00:00:00 10,3 9,4 0 0 N 1020,4 10
17.11.2017 23:00:00 9,6 8,5 2 1 - 1020,4 10
17.11.2017 22:00:00 10,1 9,0 0 0 N 1020,3 10
17.11.2017 21:00:00 11,1 9,2 4 2 NW 1020,0 10
17.11.2017 20:00:00 12,5 9,9 0 0 N 1020,0 10
17.11.2017 19:00:00 14,5 11,3 0 0 N 1019,5 10
17.11.2017 18:00:00 14,6 10,9 5 3 WZW 1019,1 10
17.11.2017 17:00:00 17,0 11,3 11 6 NW 1019,0 10
17.11.2017 16:00:00 17,7 11,3 11 6 WNW 1019,2 10
17.11.2017 15:00:00 19,0 10,4 11 6 NW 1019,3 10
17.11.2017 14:00:00 18,5 11,7 15 8 WNW 1019,9 10
17.11.2017 13:00:00 19,2 11,6 16 9 ZW 1019,7 10
17.11.2017 12:00:00 18,9 11,7 13 7 ZZW 1020,3 10
17.11.2017 11:00:00 18,3 12,1 9 5 Z 1020,5 10
17.11.2017 10:00:00 15,9 12,8 0 0 N 1020,5 10
17.11.2017 09:00:00 12,3 11,1 0 0 N 1020,4 10
17.11.2017 08:00:00 9,3 8,7 2 1 - 1020,1 10
17.11.2017 07:00:00 9,1 8,8 0 0 N 1019,8 10
17.11.2017 06:00:00 8,1 7,7 0 0 N 1019,5 -
17.11.2017 05:00:00 9,1 8,6 0 0 N 1019,8 -
17.11.2017 04:00:00 8,5 7,9 0 0 N 1019,9 -
17.11.2017 03:00:00 8,3 7,9 0 0 N 1020,0 -
17.11.2017 02:00:00 8,5 7,7 0 0 N 1020,2 -
17.11.2017 01:00:00 9,3 8,4 0 0 N 1020,6 -
17.11.2017 00:00:00 9,5 8,4 0 0 N 1020,9 10
16.11.2017 23:00:00 9,8 8,2 4 2 NNW 1020,9 10
16.11.2017 22:00:00 10,3 8,4 0 0 N 1020,9 10
16.11.2017 21:00:00 10,2 8,5 0 0 N 1020,4 10
16.11.2017 20:00:00 11,7 9,1 0 0 N 1020,0 10
16.11.2017 19:00:00 13,4 9,8 9 5 NW 1019,5 10
16.11.2017 18:00:00 14,4 10,4 11 6 WZW 1019,2 10
16.11.2017 17:00:00 17,7 10,1 11 6 ZW 1019,1 10
16.11.2017 16:00:00 18,5 10,8 13 7 ZW 1019,0 10
16.11.2017 15:00:00 19,0 10,3 15 8 ZW 1019,1 10
16.11.2017 14:00:00 19,1 11,3 16 9 ZW 1019,2 10
16.11.2017 13:00:00 18,9 11,4 13 7 ZZW 1019,8 10
16.11.2017 12:00:00 19,0 12,0 13 7 ZZW 1020,2 10
16.11.2017 11:00:00 17,1 12,0 5 3 ZZW 1020,5 10
16.11.2017 10:00:00 16,8 12,0 0 0 N 1020,1 10
16.11.2017 09:00:00 12,2 10,6 0 0 N 1019,7 10
16.11.2017 08:00:00 9,2 8,2 0 0 N 1019,2 10
16.11.2017 07:00:00 9,5 8,5 0 0 N 1018,6 10
16.11.2017 06:00:00 8,3 7,5 0 0 N 1018,5 -
16.11.2017 05:00:00 8,6 7,5 0 0 N 1018,3 -
16.11.2017 04:00:00 9,1 7,8 5 3 N 1018,5 -
16.11.2017 03:00:00 8,8 7,7 9 5 NNW 1018,8 -
16.11.2017 02:00:00 9,1 7,7 4 2 N 1018,7 -
16.11.2017 01:00:00 9,2 7,5 4 2 NNW 1019,1 -
16.11.2017 00:00:00 9,2 7,5 0 0 N 1019,2 10
15.11.2017 23:00:00 9,0 7,1 0 0 N 1019,3 10
15.11.2017 22:00:00 9,3 7,2 8 4 N 1019,3 10
15.11.2017 21:00:00 9,2 6,3 2 1 NNW 1019,0 10
15.11.2017 20:00:00 10,1 6,8 9 5 NNW 1019,0 10
15.11.2017 19:00:00 11,3 7,0 8 4 N 1018,5 10
15.11.2017 18:00:00 14,3 8,2 9 5 ZW 1018,2 10
15.11.2017 17:00:00 16,2 7,9 16 9 ZW 1018,0 10
15.11.2017 16:00:00 17,5 8,1 21 11 WZW 1017,9 10
15.11.2017 15:00:00 17,9 7,3 18 10 WZW 1018,1 10
15.11.2017 14:00:00 17,7 7,3 21 11 ZW 1018,5 10
15.11.2017 13:00:00 17,7 7,8 21 11 WZW 1019,2 10
15.11.2017 12:00:00 17,4 7,1 16 9 ZW 1020,0 10
15.11.2017 11:00:00 16,9 7,5 16 9 ZW 1020,8 10
15.11.2017 10:00:00 15,7 5,3 4 2 - 1020,7 10
15.11.2017 09:00:00 11,2 6,5 0 0 N 1020,5 10
15.11.2017 08:00:00 6,1 3,5 0 0 N 1020,2 10
15.11.2017 07:00:00 5,6 3,8 0 0 N 1019,8 10
15.11.2017 06:00:00 6,3 4,5 0 0 N 1019,6 -
15.11.2017 05:00:00 7,1 4,8 0 0 N 1019,8 -
15.11.2017 04:00:00 7,7 5,0 2 1 ZW 1020,0 -
15.11.2017 03:00:00 8,3 4,8 0 0 N 1020,0 -
15.11.2017 02:00:00 8,3 4,7 4 2 NW 1020,1 -
15.11.2017 01:00:00 7,1 4,4 0 0 N 1020,3 -
15.11.2017 00:00:00 7,4 3,8 2 1 - 1020,6 10
14.11.2017 23:00:00 8,3 5,1 2 1 - 1020,5 10
14.11.2017 22:00:00 8,3 4,7 9 5 NNW 1020,6 10
14.11.2017 21:00:00 8,8 4,8 9 5 N 1020,4 10
14.11.2017 20:00:00 10,0 5,2 9 5 N 1020,0 10
14.11.2017 19:00:00 10,6 5,1 11 6 N 1019,6 10
14.11.2017 18:00:00 12,5 5,6 8 4 N 1018,8 10
14.11.2017 17:00:00 14,7 5,5 11 6 NNO 1018,4 10
14.11.2017 16:00:00 15,6 4,1 13 7 N 1018,2 10
14.11.2017 15:00:00 15,7 2,6 16 9 NNO 1018,0 10
14.11.2017 14:00:00 16,2 3,3 16 9 NNO 1017,9 10
14.11.2017 13:00:00 16,0 4,1 18 10 NNO 1018,2 10
14.11.2017 12:00:00 16,1 5,1 16 9 N 1018,4 10
14.11.2017 11:00:00 16,1 6,8 9 5 - 1018,6 10
14.11.2017 10:00:00 14,7 4,4 9 5 N 1018,4 10
14.11.2017 09:00:00 11,3 4,7 4 2 Z 1017,9 10
14.11.2017 08:00:00 9,3 3,7 0 0 N 1017,4 10
14.11.2017 07:00:00 9,3 3,7 5 3 NNO 1016,7 10
14.11.2017 06:00:00 11,2 3,9 18 10 N 1016,1 -
14.11.2017 05:00:00 10,6 4,6 13 7 NNO 1015,9 -
14.11.2017 04:00:00 11,2 4,4 11 6 N 1016,1 -
14.11.2017 03:00:00 11,4 4,1 9 5 N 1016,2 -
14.11.2017 02:00:00 11,3 4,3 11 6 N 1015,9 -
14.11.2017 01:00:00 9,1 3,1 5 3 NNO 1015,8 -
14.11.2017 00:00:00 10,6 2,9 5 3 NW 1015,9 10
13.11.2017 23:00:00 11,3 2,3 0 0 N 1015,8 10
13.11.2017 22:00:00 10,7 2,1 0 0 N 1015,6 10
13.11.2017 21:00:00 8,7 4,7 0 0 N 1015,5 10
13.11.2017 20:00:00 9,8 6,6 0 0 N 1015,8 10

tt = temperatuur
td = dauwpunt
ff = windsnelheid
dd = windrichting
ppp = luchtdruk
vv = zicht

Weerstations in de omgeving